Location: Baix
(44.7118°N, 4.7648°E)
Time: 15:50:30
(UTC+00:00)

Explorer 11/Cluster Stage 4 - Pass Details

Date: 02 December 2020
Orbit: 467 x 1258 km, 28.8° (Epoch: 14 January)

Event Time Altitude Azimuth Distance (km) Brightness Sun altitude
Rises 22:25:21 0° 248° (WSW) 3,879 - -63.7°
Reaches altitude 10° 22:29:23 10° 229° (SW) 2,763 - -64.1°
Maximum altitude 22:33:17 16° 194° (SSW) 2,167 - -64.5°
Drops below altitude 10° 22:36:47 10° 157° (SSE) 2,416 - -64.8°
Sets 22:39:59 0° 135° (SE) 3,179 - -65.1°
